Location: Augirein
(42.9320°N, 0.9181°E)
Time: 18:36:42
(UTC+00:00)

Cosmos 1328 Rocket - Pass Details

Date: 20 June 2021
Orbit: 602 x 625 km, 82.5° (Epoch: 02 August)

Event Time Altitude Azimuth Distance (km) Brightness Sun altitude
Rises 02:25:29 0° 356° (N) 2,879 7.9 -15.4°
Reaches altitude 10° 02:27:46 10° 2° (N) 1,974 7.0 -15.2°
Maximum altitude 02:32:01 51° 79° (ENE) 778 4.3 -14.8°
Drops below altitude 10° 02:36:17 10° 155° (SSE) 1,973 5.9 -14.3°
Enters shadow 02:37:36 - 159° (SSE) 2,493 6.4 -14.1°
